TimeCDT,TemperatureF,Dew PointF,Humidity,Sea Level PressureIn,VisibilityMPH,Wind Direction,Wind SpeedMPH,Gust SpeedMPH,PrecipitationIn,Events,Conditions,WindDirDegrees,DateUTC
12:54 AM,36.0,27.0,70,29.95,10.0,NW,9.2,-,N/A,,Clear,310,2012-10-31 05:54:00
1:54 AM,36.0,27.0,70,29.96,10.0,NW,9.2,-,N/A,,Clear,310,2012-10-31 06:54:00
2:54 AM,35.1,27.0,72,29.96,10.0,NW,8.1,-,N/A,,Clear,310,2012-10-31 07:54:00
3:54 AM,32.0,26.1,79,29.95,10.0,NW,8.1,-,N/A,,Clear,310,2012-10-31 08:54:00
4:54 AM,33.1,26.1,75,29.94,10.0,NW,9.2,-,N/A,,Clear,310,2012-10-31 09:54:00
5:54 AM,32.0,26.1,79,29.95,10.0,NW,6.9,-,N/A,,Clear,320,2012-10-31 10:54:00
6:54 AM,30.9,25.0,79,29.97,10.0,NW,9.2,-,N/A,,Clear,310,2012-10-31 11:54:00
7:54 AM,30.9,25.0,79,29.99,10.0,NW,8.1,-,N/A,,Clear,320,2012-10-31 12:54:00
8:54 AM,33.1,26.1,75,30.00,10.0,NNW,10.4,-,N/A,,Clear,330,2012-10-31 13:54:00
9:54 AM,36.0,26.1,67,30.01,10.0,NW,10.4,-,N/A,,Clear,320,2012-10-31 14:54:00
10:54 AM,39.0,27.0,62,30.01,10.0,WNW,10.4,-,N/A,,Clear,300,2012-10-31 15:54:00
11:54 AM,43.0,25.0,49,30.01,10.0,WNW,15.0,-,N/A,,Clear,300,2012-10-31 16:54:00
12:54 PM,46.9,21.9,37,29.99,10.0,NW,16.1,21.9,N/A,,Clear,310,2012-10-31 17:54:00
1:54 PM,50.0,21.0,32,29.98,10.0,NW,11.5,-,N/A,,Clear,310,2012-10-31 18:54:00
2:54 PM,52.0,19.0,27,29.95,10.0,NW,15.0,-,N/A,,Clear,320,2012-10-31 19:54:00
3:54 PM,53.1,19.0,26,29.96,10.0,WNW,18.4,23.0,N/A,,Clear,300,2012-10-31 20:54:00
4:54 PM,52.0,19.0,27,29.96,10.0,WNW,13.8,-,N/A,,Clear,300,2012-10-31 21:54:00
5:54 PM,45.0,21.9,40,29.96,10.0,WNW,6.9,-,N/A,,Clear,300,2012-10-31 22:54:00
6:54 PM,43.0,21.0,42,29.98,10.0,WNW,6.9,-,N/A,,Clear,300,2012-10-31 23:54:00
7:54 PM,39.0,23.0,53,29.99,10.0,WNW,6.9,-,N/A,,Clear,300,2012-11-01 00:54:00
8:54 PM,37.9,23.0,55,29.99,10.0,WNW,6.9,-,N/A,,Clear,290,2012-11-01 01:54:00
9:54 PM,39.9,21.9,49,29.99,10.0,West,4.6,-,N/A,,Clear,280,2012-11-01 02:54:00
10:54 PM,39.0,21.9,50,29.99,10.0,West,5.8,-,N/A,,Clear,280,2012-11-01 03:54:00
11:54 PM,39.9,21.0,47,29.98,10.0,West,4.6,-,N/A,,Clear,270,2012-11-01 04:54:00